Stations météo

réclame
Mon MeteoGroup
Twenthe, Pays-Bas (6290): Température de l'air & dewpoint: 12.01.2020 19:00:00 - 18.01.2020 19:00:00 (CET)Twenthe, Pays-Bas (6290): Température de l'air 5cm: 12.01.2020 19:00:00 - 18.01.2020 19:00:00 (CET)Twenthe, Pays-Bas (6290): Vitesse du vent & gusts: 12.01.2020 19:00:00 - 18.01.2020 19:00:00 (CET)Twenthe, Pays-Bas (6290): Direction du vent: 12.01.2020 19:00:00 - 18.01.2020 19:00:00 (CET)Twenthe, Pays-Bas (6290): reduced air pressure: 12.01.2020 19:00:00 - 18.01.2020 19:00:00 (CET)Twenthe, Pays-Bas (6290): visibility: 12.01.2020 19:00:00 - 18.01.2020 19:00:00 (CET)Twenthe, Pays-Bas (6290): Quantités de précipitations: 12.01.2020 19:00:00 - 18.01.2020 19:00:00 (CET)
Date & Time tt [°C] td [°C] tt 5cm [°C] ff [km/h] ff [knt] fx [km/h] fx [knt] dd ppp [hPa] vv [km] rr [mm]
18.01.2020 19:00:00 2,9 1,7 2,3 11 6 22 12 WSW 1026,6 28 0,0
18.01.2020 18:00:00 3,4 2,0 2,4 11 6 22 12 WSW 1025,7 31 0,0
18.01.2020 17:00:00 4,1 2,2 3,4 14 8 32 18 W 1024,8 33 0,1
18.01.2020 16:00:00 5,3 2,8 5,4 11 6 18 10 W 1024,1 30 0,0
18.01.2020 15:00:00 5,3 2,8 5,0 18 10 32 18 WSW 1023,5 37 0,0
18.01.2020 14:00:00 6,1 3,3 6,1 18 10 29 16 WSW 1023,2 25 0,0
18.01.2020 13:00:00 5,3 3,4 5,5 18 10 32 18 SW 1023,2 20 0,0
18.01.2020 12:00:00 4,9 3,2 5,0 18 10 32 18 SW 1023,1 16 0,0
18.01.2020 11:00:00 4,3 2,5 4,0 22 12 32 18 SW 1022,9 20 0,0
18.01.2020 10:00:00 4,0 2,3 3,9 22 12 32 18 SW 1022,4 22 0,0
18.01.2020 09:00:00 3,5 2,0 2,7 22 12 32 18 SSW 1021,7 26 0,0
18.01.2020 08:00:00 3,7 2,1 3,4 18 10 29 16 SSW 1021,4 34 0,0
18.01.2020 07:00:00 3,3 1,9 2,4 18 10 29 16 SW 1020,9 31 0,0
18.01.2020 06:00:00 3,7 2,3 2,8 18 10 32 18 SSW 1020,4 22 0,0
18.01.2020 05:00:00 3,6 2,1 2,8 18 10 25 14 SSW 1020,1 22 0,0
18.01.2020 04:00:00 3,6 1,7 2,7 18 10 29 16 SSW 1019,8 33 0,0
18.01.2020 03:00:00 3,6 1,2 2,4 14 8 29 16 SSW 1019,7 38 0,0
18.01.2020 02:00:00 4,5 1,6 3,5 18 10 29 16 SW 1019,3 49 0,0
18.01.2020 01:00:00 4,7 1,7 3,6 18 10 29 16 SW 1018,6 44 0,0
18.01.2020 00:00:00 5,1 2,2 4,3 18 10 36 19 WSW 1017,8 45 0,0
17.01.2020 23:00:00 5,8 2,3 4,6 18 10 40 21 SW 1017,2 48 0,0
17.01.2020 22:00:00 6,2 1,9 5,2 25 14 58 31 WSW 1016,3 50 0,0
17.01.2020 21:00:00 7,7 3,7 7,1 32 18 47 25 WSW 1015,5 47 0,0
17.01.2020 20:00:00 7,5 6,2 6,8 14 8 25 14 SSW 1014,9 23 0,0
17.01.2020 19:00:00 8,0 7,0 6,8 14 8 29 16 SSW 1014,2 16 0,0
17.01.2020 18:00:00 8,6 7,6 8,2 18 10 32 18 SSW 1013,9 20 0,0
17.01.2020 17:00:00 8,6 7,7 8,1 18 10 25 14 SSW 1013,3 17 0,0
17.01.2020 16:00:00 8,3 7,7 8,1 14 8 25 14 SSW 1013,2 17 0,5
17.01.2020 15:00:00 8,5 7,3 8,3 18 10 32 18 S 1013,1 13 0,2
17.01.2020 14:00:00 9,7 5,8 9,5 22 12 36 19 SSW 1013,0 47 0,0
17.01.2020 13:00:00 9,9 5,4 9,5 22 12 40 21 SSW 1013,4 44 0,0
17.01.2020 12:00:00 9,9 5,5 9,5 18 10 36 19 SSW 1013,7 50 0,0
17.01.2020 11:00:00 9,6 5,1 9,2 22 12 29 16 S 1014,1 44 0,0
17.01.2020 10:00:00 9,1 4,9 8,4 18 10 25 14 S 1014,4 49 0,0
17.01.2020 09:00:00 7,9 4,4 7,0 18 10 25 14 S 1014,5 49 0,0
17.01.2020 08:00:00 7,8 4,2 6,6 18 10 25 14 SSE 1014,3 48 0,0
17.01.2020 07:00:00 8,5 4,4 7,3 14 8 29 16 S 1014,8 48 0,0
17.01.2020 06:00:00 9,2 4,7 8,3 18 10 25 14 SSE 1015,3 50 0,0
17.01.2020 05:00:00 9,2 4,7 8,1 18 10 29 16 S 1015,9 50 0,0
17.01.2020 04:00:00 7,8 4,6 6,7 14 8 22 12 SSE 1016,5 50 0,0
17.01.2020 03:00:00 7,7 4,6 6,4 14 8 25 14 SSE 1017,4 50 0,0
17.01.2020 02:00:00 8,0 4,8 7,2 18 10 29 16 SSE 1017,8 50 0,0
17.01.2020 01:00:00 8,1 5,0 7,1 18 10 25 14 SSE 1018,6 50 0,0
17.01.2020 00:00:00 7,9 4,9 6,7 14 8 25 14 SSE 1019,2 49 0,0
16.01.2020 23:00:00 8,4 5,0 7,1 18 10 29 16 SSE 1019,7 49 0,0
16.01.2020 22:00:00 8,2 4,9 6,9 18 10 25 14 SSE 1020,1 50 0,0
16.01.2020 21:00:00 8,1 4,6 6,8 18 10 25 14 SSE 1020,9 50 0,0
16.01.2020 20:00:00 8,1 4,6 6,7 14 8 22 12 SSE 1021,7 50 0,0
16.01.2020 19:00:00 8,0 4,7 6,4 14 8 18 10 SSE 1022,2 50 0,0
16.01.2020 18:00:00 8,1 4,9 6,1 11 6 14 8 SSE 1022,4 49 0,0
16.01.2020 17:00:00 8,4 5,3 6,6 11 6 18 10 SE 1022,7 49 0,0
16.01.2020 16:00:00 9,7 6,1 9,1 14 8 22 12 SSE 1022,9 42 0,0
16.01.2020 15:00:00 10,3 6,2 10,3 18 10 25 14 SSE 1023,2 30 0,0
16.01.2020 14:00:00 10,1 6,1 10,3 14 8 25 14 SSE 1023,9 35 0,0
16.01.2020 13:00:00 9,4 5,9 9,7 18 10 25 14 SSE 1024,8 30 0,0
16.01.2020 12:00:00 8,6 5,8 8,9 14 8 22 12 S 1025,5 25 0,0
16.01.2020 11:00:00 7,2 5,1 7,2 14 8 22 12 S 1026,0 16 0,0
16.01.2020 10:00:00 5,2 4,2 4,6 11 6 18 10 SSE 1026,2 10 0,0
16.01.2020 09:00:00 3,3 2,9 2,4 11 6 18 10 S 1026,2 10 0,0
16.01.2020 08:00:00 3,9 3,4 2,5 11 6 18 10 S 1025,6 13 0,0
16.01.2020 07:00:00 3,8 3,3 2,6 11 6 18 10 S 1025,4 11 0,0
16.01.2020 06:00:00 4,2 3,5 3,1 14 8 22 12 SSW 1024,8 12 0,0
16.01.2020 05:00:00 4,4 3,6 3,4 14 8 22 12 SSW 1024,5 12 0,0
16.01.2020 04:00:00 4,5 3,7 3,3 14 8 25 14 SSW 1023,8 11 0,0
16.01.2020 03:00:00 4,9 3,9 3,7 14 8 25 14 SSW 1023,2 11 0,0
16.01.2020 02:00:00 5,5 4,3 4,4 18 10 25 14 SSW 1022,5 12 0,0
16.01.2020 01:00:00 5,8 4,5 4,9 18 10 32 18 SSW 1021,9 14 0,0
16.01.2020 00:00:00 5,8 4,5 4,9 14 8 29 16 SW 1021,1 23 0,0
15.01.2020 23:00:00 6,3 4,8 5,2 18 10 29 16 SW 1019,7 26 0,0
15.01.2020 22:00:00 6,2 4,8 5,3 18 10 29 16 SW 1018,3 47 0,0
15.01.2020 21:00:00 6,9 5,3 6,1 18 10 29 16 SW 1017,0 50 0,0
15.01.2020 20:00:00 8,0 6,9 7,5 18 10 29 16 SW 1015,9 49 0,1
15.01.2020 19:00:00 9,1 7,8 8,7 25 14 40 21 WSW 1014,2 11 1,3
15.01.2020 18:00:00 9,9 7,5 9,4 29 16 47 25 SSW 1012,3 25 0,4
15.01.2020 17:00:00 10,9 6,7 10,1 32 18 58 31 SSW 1010,9 25 0,1
15.01.2020 16:00:00 12,2 5,4 11,3 25 14 50 27 SSW 1010,0 49 0,0
15.01.2020 15:00:00 12,0 5,5 11,1 22 12 50 27 SSW 1009,4 46 0,1
15.01.2020 14:00:00 12,5 4,8 12,1 32 18 54 29 SSW 1008,5 49 0,0
15.01.2020 13:00:00 11,9 4,9 11,6 29 16 50 27 S 1008,4 48 0,0
15.01.2020 12:00:00 11,6 4,7 11,2 32 18 50 27 SSW 1008,6 50 0,0
15.01.2020 11:00:00 11,5 4,8 11,1 29 16 50 27 SSW 1008,7 45 0,0
15.01.2020 10:00:00 11,3 4,8 10,4 29 16 47 25 SSW 1008,3 50 0,0
15.01.2020 09:00:00 10,9 5,1 10,0 29 16 47 25 S 1008,1 50 0,0
15.01.2020 08:00:00 11,5 5,3 10,7 29 16 50 27 SSW 1007,4 50 0,0
15.01.2020 07:00:00 11,6 5,6 10,6 36 19 58 31 SSW 1007,2 48 0,0
15.01.2020 06:00:00 11,3 6,1 10,3 32 18 61 33 SSW 1006,9 50 0,0
15.01.2020 05:00:00 11,4 6,8 10,3 29 16 58 31 SSW 1006,9 50 0,0
15.01.2020 04:00:00 11,5 6,8 10,8 29 16 54 29 SSW 1006,8 50 0,0
15.01.2020 03:00:00 11,9 7,0 11,4 29 16 54 29 SSW 1006,8 50 0,0
15.01.2020 02:00:00 12,2 6,8 11,6 32 18 50 27 SSW 1006,4 50 0,0
15.01.2020 01:00:00 12,1 6,9 11,2 32 18 54 29 SSW 1006,0 49 0,0
15.01.2020 00:00:00 11,9 6,6 11,2 36 19 58 31 SSW 1005,8 50 0,0
14.01.2020 23:00:00 11,1 7,1 10,6 36 19 54 29 SSW 1005,5 33 0,0
14.01.2020 22:00:00 11,5 7,5 11,1 32 18 61 33 SSW 1004,9 48 0,0
14.01.2020 21:00:00 11,6 7,7 11,1 36 19 61 33 SSW 1004,5 50 0,0
14.01.2020 20:00:00 11,3 7,2 10,8 36 19 61 33 SSW 1004,4 50 0,0
14.01.2020 19:00:00 10,8 6,6 10,4 36 19 61 33 SSW 1004,4 50 0,0
14.01.2020 18:00:00 10,9 6,4 10,4 36 19 61 33 S 1004,3 50 0,0
14.01.2020 17:00:00 10,4 6,4 9,9 25 14 47 25 S 1004,3 49 0,0
14.01.2020 16:00:00 10,2 6,7 9,7 29 16 47 25 S 1004,2 50 0,0
14.01.2020 15:00:00 10,1 6,9 9,8 25 14 50 27 S 1004,4 50 0,0
14.01.2020 14:00:00 10,2 7,2 9,7 25 14 43 23 SSW 1004,8 49 0,0
14.01.2020 13:00:00 10,1 7,3 9,8 29 16 47 25 SSW 1005,1 48 0,0
14.01.2020 12:00:00 9,8 7,7 9,4 22 12 40 21 SSW 1005,4 49 0,0
14.01.2020 11:00:00 9,4 7,9 9,0 22 12 43 23 SSW 1005,2 8 0,1
14.01.2020 10:00:00 9,1 7,9 8,9 29 16 47 25 SSW 1004,5 4,9 0,0
14.01.2020 09:00:00 9,2 7,7 8,9 25 14 47 25 SSW 1003,6 14 0,0
14.01.2020 08:00:00 9,0 7,8 8,7 32 18 50 27 SSW 1003,0 6 0,6
14.01.2020 07:00:00 9,4 7,8 9,0 29 16 50 27 SSW 1002,6 20 0,9
14.01.2020 06:00:00 9,7 7,8 9,1 29 16 47 25 SSW 1002,5 22 0,8
14.01.2020 05:00:00 9,1 7,6 8,6 25 14 43 23 S 1002,7 16 1,0
14.01.2020 04:00:00 9,0 7,3 8,5 25 14 47 25 S 1002,8 23 0,6
14.01.2020 03:00:00 9,2 6,8 8,6 32 18 50 27 S 1004,1 15 0,2
14.01.2020 02:00:00 9,5 5,9 9,1 29 16 50 27 S 1004,6 50 0,0
14.01.2020 01:00:00 9,3 5,8 8,9 32 18 54 29 S 1005,3 50 0,0
14.01.2020 00:00:00 9,0 5,6 8,5 29 16 43 23 S 1006,3 50 0,0
13.01.2020 23:00:00 8,4 5,4 7,9 32 18 54 29 S 1007,2 50 0,0
13.01.2020 22:00:00 7,9 5,2 7,5 25 14 43 23 S 1008,5 50 0,0
13.01.2020 21:00:00 7,6 4,6 7,1 25 14 36 19 S 1009,4 50 0,0
13.01.2020 20:00:00 7,3 4,5 6,9 22 12 40 21 SSE 1010,3 50 0,0
13.01.2020 19:00:00 7,1 4,5 6,5 18 10 29 16 SSE 1011,5 50 0,0
13.01.2020 18:00:00 6,5 4,7 5,7 22 12 29 16 SSE 1012,2 44 0,0
13.01.2020 17:00:00 6,7 4,3 5,9 18 10 29 16 S 1013,4 49 0,0
13.01.2020 16:00:00 7,7 4,6 7,2 18 10 29 16 S 1014,3 46 0,0
13.01.2020 15:00:00 7,9 4,6 7,6 18 10 29 16 SSW 1015,2 43 0,0
13.01.2020 14:00:00 7,8 4,9 7,9 18 10 29 16 S 1015,7 23 0,0
13.01.2020 13:00:00 7,4 5,2 7,1 14 8 29 16 SSW 1017,1 20 0,0
13.01.2020 12:00:00 6,9 4,7 6,8 18 10 32 18 SW 1018,1 19 0,0
13.01.2020 11:00:00 6,9 5,0 6,8 18 10 32 18 SSW 1018,9 16 0,0
13.01.2020 10:00:00 7,0 5,4 6,7 18 10 29 16 SSW 1019,1 13 0,0
13.01.2020 09:00:00 6,7 5,5 6,4 14 8 32 18 SSW 1019,0 13 0,0
13.01.2020 08:00:00 6,7 5,7 6,4 18 10 32 18 SSW 1019,1 12 0,0
13.01.2020 07:00:00 7,0 6,0 6,7 14 8 25 14 SW 1019,2 11 0,0
13.01.2020 06:00:00 6,9 6,1 6,6 14 8 25 14 SSW 1019,4 6 0,1
13.01.2020 05:00:00 7,2 6,3 6,9 14 8 29 16 SSW 1019,8 7 0,0
13.01.2020 04:00:00 7,2 6,4 6,9 14 8 25 14 SSW 1020,3 9 0,0
13.01.2020 03:00:00 7,2 6,4 6,8 14 8 22 12 SSW 1020,7 9 0,0
13.01.2020 02:00:00 7,0 6,6 6,7 11 6 18 10 SW 1020,9 8 0,0
13.01.2020 01:00:00 6,2 5,6 4,9 7 4 14 8 SSW 1021,2 24 0,0
13.01.2020 00:00:00 6,8 5,4 6,0 11 6 18 10 SW 1021,1 49 0,0
12.01.2020 23:00:00 5,8 5,0 4,5 11 6 18 10 SW 1020,9 31 0,0
12.01.2020 22:00:00 7,2 6,2 6,9 11 6 22 12 WSW 1020,3 22 0,0
12.01.2020 21:00:00 7,7 6,5 7,3 14 8 36 19 W 1019,8 29 0,7
12.01.2020 20:00:00 8,3 6,9 7,9 22 12 36 19 SSW 1018,7 22 0,0
12.01.2020 19:00:00 8,5 6,9 8,0 22 12 43 23 SW 1018,2 26 0,0

tt = Température de l'air
td = dewpoint
tt 5cm = Température de l'air 5cm
ff = Vitesse du vent
fx = gusts
dd = Direction du vent
ppp = reduced air pressure
vv = visibility
rr = Quantités de précipitations

stations d'obs. à proximité